This demonstration page uses our WeatherBlox Daily Observations layout. Learn more.

Left ArrowRight Arrow

39.01783, -85.05884

Hourly Observations for March 20, 2015

Temp ( °F °C ) Dew Point ( °F °C ) Humidity (%) Winds ( mph kmh ) Pressure ( in mb ) Visibility ( mi km ) Precip ( " mm )
12:52 am 00:52 Cloudy 43 6.1 37 2.8 80 80 ENE 7 11 30.06 1018 10 16 0.00 0.00
1:52 am 01:52 Cloudy 43 6.1 37 2.8 80 80 ENE 8 13 30.03 1017 10 16 0.00 0.00
2:42 am 02:42 Cloudy 43 6 37 3 81 81 E 10 17 30.06 1018 10 16 0.00 0.00
2:52 am 02:52 Cloudy 42 5.6 37 2.8 82 82 E 9 15 30.02 1017 10 16 0.00 0.00
3:52 am 03:52 Cloudy with Drizzle 42 5.6 37 2.8 82 82 ENE 5 7 30.02 1017 5 8 0.00 0.03
4:52 am 04:52 Cloudy with Drizzle 41 5 38 3.3 89 89 Calm 30.02 1017 3 5 0.01 0.25
5:19 am 05:19 Cloudy with Drizzle 41 5 39 4 93 93 NNW 5 7 30.06 1018 5 8 0.00 0.03
5:52 am 05:52 Cloudy with Drizzle 41 5 38 3.3 89 89 NNW 3 6 30.04 1017 6 10 0.00 0.03
6:31 am 06:31 Cloudy with Light Rain 41 5 37 3 87 87 NNW 7 11 30.06 1018 3 5 0.00 0.03
6:52 am 06:52 Cloudy with Light Rain 40 4.4 39 3.9 97 97 N 6 9 30.04 1017 3 5 0.01 0.25
7:06 am 07:06 Cloudy with Light Rain 39 4 39 4 100 100 N 7 11 30.09 1019 3 5 0.00 0.00
7:52 am 07:52 Cloudy with Mist and Fog 40 4.4 39 3.9 97 97 N 3 6 30.05 1018 2 3 0.00 0.03
8:17 am 08:17 Cloudy with Mist and Fog 39 4 39 4 100 100 NNW 5 7 30.09 1019 3 5 0.00 0.00
8:31 am 08:31 Cloudy with Mist and Fog 41 5 39 4 93 93 NNW 6 9 30.09 1019 2 3 0.00 0.00
8:52 am 08:52 Cloudy with Mist and Fog 41 5 39 3.9 93 93 NNW 3 6 30.07 1018 2 3 0.00 0.00
9:52 am 09:52 Cloudy with Mist and Fog 41 5 39 3.9 93 93 NNW 7 11 30.09 1019 2 3 0.00 0.00
10:52 am 10:52 Cloudy with Mist and Fog 42 5.6 39 3.9 89 89 NNW 9 15 30.11 1020 2 3 0.00 0.00
11:07 am 11:07 Cloudy with Mist and Fog 43 6 39 4 87 87 N 7 11 30.15 1021 5 8 0.00 0.00
11:52 am 11:52 Cloudy 44 6.7 39 3.9 83 83 NNE 6 9 30.12 1020 7 11 0.00 0.00
12:37 pm 12:37 Cloudy 45 7 37 3 76 76 NNW 9 15 30.15 1021 10 16 0.00 0.00
12:52 pm 12:52 Cloudy 45 7.2 39 3.9 80 80 NNW 7 11 30.13 1020 10 16 0.00 0.00
1:52 pm 13:52 Cloudy 47 8.3 39 3.9 74 74 NNW 7 11 30.12 1020 10 16 0.00 0.00
2:52 pm 14:52 Cloudy 48 8.9 39 3.9 71 71 WNW 7 11 30.11 1020 10 16 0.00 0.00
3:52 pm 15:52 Cloudy 48 8.9 39 3.9 71 71 WNW 9 15 30.10 1019 10 16 0.00 0.00
4:52 pm 16:52 Cloudy 48 8.9 39 3.9 71 71 NW 7 11 30.09 1019 10 16 0.00 0.00
5:52 pm 17:52 Cloudy 48 8.9 38 3.3 68 68 NW 6 9 30.09 1019 10 16 0.00 0.00
6:52 pm 18:52 Cloudy 47 8.3 39 3.9 74 74 WNW 3 6 30.11 1020 10 16 0.00 0.00
7:52 pm 19:52 Cloudy 47 8.3 39 3.9 74 74 W 3 6 30.12 1020 10 16 0.00 0.00
8:52 pm 20:52 Cloudy 46 7.8 39 3.9 77 77 Calm 30.12 1020 10 16 0.00 0.00
9:52 pm 21:52 Cloudy 46 7.8 39 3.9 77 77 Calm 30.13 1020 10 16 0.00 0.00
10:52 pm 22:52 Cloudy 46 7.8 39 3.9 77 77 Calm 30.13 1020 9 14 0.00 0.00
11:52 pm 23:52 Cloudy 45 7.2 39 3.9 80 80 SSW 3 6 30.13 1020 9 14 0.00 0.00

Powered by AerisWeather